Observations for Trim Market St
| Time | AQI | Temp °C | Hum % | Pres Pa | CO μg/m³ | H₂S μg/m³ | NO μg/m³ | NO₂ μg/m³ | O₃ μg/m³ | SO₂ μg/m³ | PM1 μg/m³ | PM2.5 μg/m³ | PM10 μg/m³ |
|---|---|---|---|---|---|---|---|---|---|---|---|---|---|
| Tuesday 11 August 2026 | |||||||||||||
| 12:53 | 2 | 39.3 | 19 | 66,965 | 0 | 0 | 0.17 | 15.46 | 94.55 | 3.54 | 0 | 3.23 | 3.55 |
| 12:52 | 2 | 39.2 | 19 | 66,957 | 0 | 1.25 | 0.2 | 15.2 | 107.86 | 4.13 | 0 | 3.22 | 3.54 |
| 12:51 | 2 | 39.1 | 19 | 66,973 | 0 | 0 | 0.23 | 15.04 | 77.44 | 4.76 | 0.71 | 3.78 | 4.16 |
| 12:50 | 2 | 39 | 19 | 66,937 | 0 | 2.66 | 0.24 | 15.42 | 105.87 | 4.35 | 0 | 3.22 | 3.54 |
| 12:49 | 2 | 38.9 | 19 | 66,926 | 0 | 6.41 | 0.24 | 15.22 | 130.87 | 4.78 | 0 | 3.77 | 4.15 |
| 12:48 | 2 | 38.8 | 19 | 66,910 | 0 | 0 | 0.27 | 15.37 | 99.93 | 3.79 | 0.71 | 3.79 | 4.16 |
| 12:47 | 2 | 38.7 | 19 | 66,924 | 0 | 1.58 | 0.27 | 15.71 | 108.74 | 4.5 | 0 | 3.24 | 3.56 |
| 12:46 | 2 | 38.7 | 19 | 66,945 | 0 | 0.88 | 0.23 | 15.46 | 79.88 | 3.08 | 0.71 | 4.91 | 5.4 |
| 12:42 | 2 | 39.1 | 18 | 66,933 | 0 | 7.44 | 0.14 | 16.85 | 85.46 | 4.02 | 0 | 3.25 | 3.58 |
| 12:41 | 2 | 39.2 | 18 | 66,928 | 0 | 0 | 0.13 | 18.6 | 68.51 | 2.97 | 0 | 3.25 | 3.58 |
| 12:40 | 2 | 39.3 | 18 | 66,945 | 0 | 0 | 0.13 | 15.27 | 106.17 | 4.54 | 0 | 3.82 | 4.2 |
| 12:39 | 2 | 39.4 | 18 | 66,935 | 0 | 0 | 0.12 | 15.28 | 90.55 | 4.09 | 1.43 | 4.37 | 4.81 |
| 12:28 | 2 | 39.9 | 18 | 66,984 | 0 | 0 | 0.01 | 15.04 | 113.64 | 4.15 | 0.71 | 3.81 | 4.19 |
| 12:27 | 2 | 39.9 | 19 | 67,009 | 0 | 0 | 0.01 | 17.1 | 132.45 | 3.13 | 0 | 3.24 | 3.56 |
| 12:26 | 2 | 40 | 19 | 67,009 | 0 | 0 | 0 | 16.41 | 77.3 | 2.53 | 0 | 3.23 | 3.55 |
| 12:25 | 2 | 40 | 19 | 67,015 | 0 | 0 | 0 | 12.7 | 76.61 | 5.15 | 0 | 3.23 | 3.55 |
| 12:24 | 2 | 39.9 | 18 | 67,015 | 0 | 0 | 0.01 | 15.04 | 96.24 | 3.96 | 0 | 3.81 | 4.19 |
| 12:23 | 2 | 39.9 | 18 | 67,015 | 0 | 0 | 0 | 14.96 | 105.89 | 3.65 | 0 | 3.24 | 3.57 |
| 12:22 | 2 | 39.9 | 19 | 67,013 | 0 | 0 | 0 | 14.91 | 133.51 | 3.58 | 0 | 3.79 | 4.17 |
| 12:21 | 2 | 39.9 | 19 | 67,015 | 0 | 0 | 0 | 14.89 | 95.88 | 4.64 | 0 | 3.79 | 4.16 |